Weather History for Green Bay, WI

Change the Weather History Date:

Monday, September 16, 2013

  Actual Average Record
Temperature  
Mean Temperature 49 °F 59 °F  
Max Temperature 60 °F 70 °F 92 °F (1891)
Min Temperature 38 °F 48 °F 33 °F (1916)
Degree Days  
Heating Degree Days 16 7  
Month to date heating degree days 70 74  
Since 1 July heating degree days 110 137  
Cooling Degree Days 0 1  
Month to date cooling degree days 43 26  
Year to date cooling degree days 521 388  
Moisture  
Dew Point 42 °F    
Average Humidity 79    
Maximum Humidity 100    
Minimum Humidity 57    
Precipitation  
Precipitation 0.00 in 0.10 in 3.56 in (1888)
Month to date precipitation 2.26 1.62  
Year to date precipitation 26.25 22.02  
Snow  
Snow 0.00 in 0.00 in 0.00 in ()
Month to date snowfall 0.0 0.0  
Since 1 July snowfall 0.0 0.0  
Since 1 September snowfall 0.0 0.0  
Snow Depth 0.00 in    
Sea Level Pressure  
Sea Level Pressure 30.39 in    
Wind  
Wind Speed 6 mph (NNE)    
Max Wind Speed 15 mph    
Max Gust Speed 19 mph    
Visibility 10 miles    
Events      
T = Trace of Precipitation, MM = Missing Value Source: NWS Daily Summary

Daily Weather History Graph

Daily Weather History Graph

Search for Another Location

Airport:

Trip Planner

Search our weather history database for the weather conditions in past years. The results will help you decide how hot, cold, wet, or windy it might be!

Date:

Astronomy

Sep. 16, 2013 Rise Set
Actual Time 6:32 AM CDT 7:00 PM CDT
Civil Twilight 6:03 AM CDT 7:29 PM CDT
Nautical Twilight 5:29 AM CDT 8:04 PM CDT
Astronomical Twilight 4:53 AM CDT 8:39 PM CDT
Moon 5:13 PM CDT (9/16) 3:12 AM CDT (9/16)
Length of Visible Light 13h 26m
Length of Day
12h 27m
Waxing Gibbous, 90% of the Moon is Illuminated
Sep 16
Waxing Gibbous
Sep 19
Full
Sep 26
Last Quarter
Oct 4
New
Oct 11
First Quarter

Hourly Weather History & Observations

Time (CDT) Temp. Windchill Dew Point Humidity Pressure Visibility Wind Dir Wind Speed Gust Speed Precip Events Conditions
12:53 AM 43.0 °F 38.8 °F 39.0 °F 86% 30.31 in 10.0 mi NNW 6.9 mph - N/A   Clear
1:53 AM 42.1 °F 38.4 °F 39.0 °F 89% 30.33 in 10.0 mi NNW 5.8 mph - N/A   Clear
2:53 AM 42.1 °F 37.7 °F 39.0 °F 89% 30.33 in 10.0 mi NNW 6.9 mph - N/A   Partly Cloudy
3:53 AM 42.1 °F 37.1 °F 39.0 °F 89% 30.34 in 10.0 mi NNW 8.1 mph - N/A   Scattered Clouds
4:53 AM 41.0 °F 39.0 °F 37.9 °F 89% 30.36 in 10.0 mi NE 3.5 mph - N/A   Clear
5:53 AM 39.0 °F 36.8 °F 37.9 °F 96% 30.38 in 10.0 mi NNW 3.5 mph - N/A   Clear
6:53 AM 37.9 °F 34.4 °F 37.0 °F 97% 30.39 in 10.0 mi NNW 4.6 mph - N/A   Clear
7:53 AM 42.1 °F 39.2 °F 39.9 °F 92% 30.41 in 10.0 mi NNW 4.6 mph - N/A   Mostly Cloudy
8:53 AM 46.9 °F - 43.0 °F 86% 30.43 in 10.0 mi Calm Calm - N/A   Mostly Cloudy
9:53 AM 54.0 °F - 46.0 °F 75% 30.44 in 10.0 mi NNE 8.1 mph - N/A   Mostly Cloudy
10:53 AM 55.0 °F - 46.0 °F 72% 30.45 in 10.0 mi NNE 10.4 mph - N/A   Mostly Cloudy
11:14 AM 55.9 °F - 43.0 °F 62% 30.43 in 10.0 mi NE 11.5 mph - N/A   Mostly Cloudy
11:53 AM 57.0 °F - 43.0 °F 59% 30.45 in 10.0 mi NNE 10.4 mph - N/A   Mostly Cloudy
12:53 PM 57.9 °F - 43.0 °F 58% 30.44 in 10.0 mi NNE 8.1 mph - N/A   Clear
1:53 PM 57.9 °F - 44.1 °F 60% 30.43 in 10.0 mi Variable 5.8 mph - N/A   Clear
2:53 PM 59.0 °F - 46.0 °F 62% 30.41 in 10.0 mi NE 8.1 mph - N/A   Clear
3:53 PM 59.0 °F - 45.0 °F 60% 30.40 in 10.0 mi NNE 6.9 mph - N/A   Clear
4:53 PM 59.0 °F - 46.0 °F 62% 30.40 in 10.0 mi NE 8.1 mph - N/A   Clear
5:53 PM 57.0 °F - 46.0 °F 67% 30.39 in 10.0 mi NNE 9.2 mph - N/A   Clear
6:53 PM 53.1 °F - 45.0 °F 74% 30.39 in 10.0 mi East 6.9 mph - N/A   Clear
7:53 PM 50.0 °F - 43.0 °F 77% 30.38 in 10.0 mi East 6.9 mph - N/A   Clear
8:53 PM 48.0 °F - 42.1 °F 80% 30.38 in 10.0 mi ESE 5.8 mph - N/A   Clear
9:53 PM 43.0 °F - 41.0 °F 93% 30.38 in 10.0 mi Calm Calm - N/A   Clear
10:53 PM 41.0 °F - 39.9 °F 96% 30.39 in 10.0 mi Calm Calm - N/A   Clear
11:53 PM 39.9 °F 37.8 °F 39.0 °F 97% 30.39 in 10.0 mi West 3.5 mph - N/A   Clear